Home   Weather   Brooklyn Park   Past weeks
Flag for USA

Past Weather in Brooklyn Park, Minnesota, USA — Yesterday and Last 2 Weeks

Now
41 °F

Thunderstorms. Fog.


Feels Like: 32 °F
Forecast: 46 / 37 °F
Wind: 18 mph from Northeast

Location: Crystal Airport

Current Time: Mar 28, 2020 at 7:02:09 pm

Latest Report: Mar 28, 2020 at 6:19 pm


Visibility: 2 mi

Pressure: 29.51 "Hg

Humidity: 86%

Dew Point: 37 °F

Location of Brooklyn ParkLocation

Past Weather in Brooklyn Park — Graph

°F

Brooklyn Park Temperature Yesterday

Maximum temperature yesterday: 59 °F (at 3:53 pm)
Minimum temperature yesterday: 34 °F (at 2:53 am)
Average temperature yesterday: 47 °F

High & Low Weather Summary for the Past Weeks

 TemperatureHumidityPressure
High59 °F (Mar 27, 3:53 pm)96% (Mar 19, 6:53 am)30.73 "Hg (Mar 19, 6:53 am)
Low16 °F (Mar 21, 3:53 am)30% (Mar 17, 2:53 pm)29.54 "Hg (Mar 28, 4:53 pm)
Average37 °F71%30.13 "Hg
* Reported Mar 13 6:53 pm — Mar 28 6:00 pm, Brooklyn Park. Weather by CustomWeather, © 2020

Note: Actual official high and low records may vary slightly from our data, if they occured in-between our weather recording intervals... More about our weather records

Brooklyn Park Weather History for the Previous 24 Hours

Scroll right to see more
 ConditionsComfort  
Time TempWeatherWind HumidityBarometerVisibility
6:00 pm
Sat, Mar 28
43 °FThundershowers. Overcast.8 mph82%29.54 "Hg6 mi
4:53 pm43 °FLight rain. Mostly cloudy.18 mph86%29.54 "Hg10 mi
3:53 pm45 °FLight rain. Overcast.13 mph82%29.61 "Hg10 mi
2:53 pm45 °FLight rain. Overcast.13 mph82%29.66 "Hg10 mi
1:53 pm45 °FFog.14 mph86%29.71 "Hg4 mi
1:32 pm46 °FFog.12 mph86%29.69 "Hg2 mi
1:17 pm46 °FOvercast.10 mph83%29.70 "Hg3 mi
11:53 am47 °FOvercast.12 mph77%29.74 "Hg10 mi
11:27 am47 °FOvercast.13 mph77%29.74 "Hg10 mi
10:53 am46 °FOvercast.9 mph79%29.77 "Hg10 mi
9:53 am46 °FOvercast.10 mph77%29.74 "Hg10 mi
8:53 am45 °FOvercast.10 mph82%29.76 "Hg10 mi
7:53 am44 °FCloudy.8 mph85%29.78 "Hg10 mi
6:53 am44 °FOvercast.7 mph85%29.77 "Hg10 mi
5:53 am45 °FOvercast.5 mph86%29.76 "Hg10 mi
4:53 am45 °FOvercast.6 mph86%29.75 "Hg10 mi
3:53 am45 °FOvercast.5 mph86%29.76 "Hg10 mi
2:53 am47 °FOvercast.5 mph80%29.78 "Hg10 mi
1:53 am46 °FMostly cloudy.5 mph86%29.80 "Hg10 mi
12:53 am47 °FLight rain. Mostly cloudy.6 mph86%29.81 "Hg9 mi
11:53 pm
Fri, Mar 27
47 °FLight rain. Overcast.7 mph86%29.83 "Hg9 mi
10:53 pm48 °FLight rain. Mostly cloudy.3 mph80%29.83 "Hg3 mi
9:53 pm53 °FOvercast.7 mph55%29.81 "Hg10 mi
8:53 pm55 °FMostly cloudy.6 mph51%29.80 "Hg10 mi
7:53 pm56 °FOvercast.6 mph47%29.79 "Hg10 mi
Weather by CustomWeather, © 2020

See weather overview

Advertising